Location: Estes Par
(40.3770°N, 105.5210°W)
Time: 02:58:39
(UTC-07:00)

XW-2D - Visible Passes

Search period start: 11 December 2018 00:00
Search period end: 21 December 2018 00:00
Orbit: 508 x 530 km, 97.5° (Epoch: 11 December)

Date Brightness Start Highest point End Pass type
(mag) Time Alt. Az. Time Alt. Az. Time Alt. Az.
11 Dec ? 05:19:53 10° NE 05:22:52 22° E 05:25:50 10° SSE visible
11 Dec ? 17:33:15 10° S 17:36:56 50° W 17:40:36 10° NNW visible
12 Dec ? 05:06:43 10° NE 05:09:00 16° E 05:11:17 10° SE visible
12 Dec ? 06:39:53 10° N 06:43:12 31° WNW 06:46:32 10° SW visible
12 Dec ? 17:19:23 10° S 17:23:09 77° WSW 17:26:55 10° NNW visible
13 Dec ? 04:54:24 10° E 04:55:07 10° E 04:55:50 10° ESE visible
13 Dec ? 06:25:55 10° N 06:29:30 47° WNW 06:33:04 10° SSW visible
13 Dec ? 17:05:39 10° SSE 17:09:24 70° ENE 17:13:07 10° N visible
14 Dec ? 06:12:03 10° N 06:15:46 73° WNW 06:19:27 10° SSW visible
14 Dec ? 18:28:49 10° WSW 18:30:01 11° W 18:31:12 10° WNW visible
15 Dec ? 05:58:16 10° NNE 06:02:00 73° ESE 06:05:42 10° S visible
15 Dec ? 18:13:40 10° SW 18:16:07 16° W 18:18:34 10° NW visible
16 Dec ? 05:44:35 10° NNE 05:48:12 47° E 05:51:48 10° S visible
16 Dec ? 17:59:11 10° SSW 18:02:15 24° W 18:05:20 10° NW visible
17 Dec ? 05:31:02 10° NNE 05:34:23 31° E 05:37:43 10° SSE visible
17 Dec ? 17:44:58 10° SSW 17:48:26 35° W 17:51:53 10° NNW visible
18 Dec ? 05:17:37 10° NE 05:20:32 21° E 05:23:26 10° SE visible
18 Dec ? 17:30:57 10° S 17:34:37 53° W 17:38:17 10° NNW visible
19 Dec ? 05:04:31 10° ENE 05:06:39 15° E 05:08:49 10° SE visible
19 Dec ? 06:37:30 10° N 06:40:54 34° WNW 06:44:16 10° SW visible
19 Dec ? 17:17:05 10° S 17:20:50 83° W 17:24:35 10° NNW visible
20 Dec ? 06:23:33 10° N 06:27:10 50° WNW 06:30:47 10° SSW visible
20 Dec ? 17:03:21 10° SSE 17:07:04 65° ENE 17:10:46 10° N visible
